Stewartville, MN

12:35 PM CST on February 07, 2016 (GMT -0600)
Rochester International

Weather History for KRST - May, 2014

Change the Weather History Date:

Friday, May 16, 2014

  Actual Average Record
Temperature  
Mean Temperature 44 °F 58 °F  
Max Temperature 51 °F 69 °F 92 °F (1936)
Min Temperature 37 °F 47 °F 29 °F (1956)
Degree Days  
Heating Degree Days 21 8  
Month to date heating degree days 205 157  
Since 1 July heating degree days 8860 7582  
Cooling Degree Days 0 1  
Month to date cooling degree days 0 9  
Year to date cooling degree days 0 13  
Moisture  
Dew Point 30 °F    
Average Humidity 61    
Maximum Humidity 85    
Minimum Humidity 36    
Precipitation  
Precipitation T in 0.12 in 1.55 in (1999)
Month to date precipitation 1.69 1.84  
Year to date precipitation 11.24 8.65  
Snow  
Snow 0.00 in 0.00 in 0.00 in (2012)
Month to date snowfall 0.0 0.2  
Since 1 July snowfall 60.5 52.1  
Snow Depth 0.00 in    
Sea Level Pressure  
Sea Level Pressure 30.10 in    
Wind  
Wind Speed 7 mph (NW)    
Max Wind Speed 15 mph    
Max Gust Speed 20 mph    
Visibility 10 miles    
Events      
T = Trace of Precipitation, MM = Missing Value Source: NWS Daily Summary

Daily Weather History Graph

Daily Weather History Graph

Search for Another Location

Airport or City:

Trip Planner

Search our weather history database for the weather conditions in past years. The results will help you decide how hot, cold, wet, or windy it might be!

Date:

Astronomy

May. 16, 2014 Rise Set
Actual Time 5:43 AM CDT 8:30 PM CDT
Civil Twilight 5:09 AM CDT 9:03 PM CDT
Nautical Twilight 4:27 AM CDT 9:46 PM CDT
Astronomical Twilight 3:38 AM CDT 10:35 PM CDT
Moon 10:37 PM CDT (5/16) 7:25 AM CDT (5/16)
Length of Visible Light 15h 54m
Length of Day
14h 47m
Waning Gibbous, 95% of the Moon is Illuminated
May 16
Waning Gibbous
May 21
Last Quarter
May 28
New
Jun 5
First Quarter
Jun 12
Full

Hourly Weather History & Observations

Time (CDT) Temp. Windchill Dew Point Humidity Pressure Visibility Wind Dir Wind Speed Gust Speed Precip Events Conditions
12:54 AM 41.0 °F 35.8 °F 32.0 °F 70% 30.11 in 10.0 mi North 8.1 mph - N/A   Overcast
1:54 AM 39.9 °F 34.5 °F 32.0 °F 73% 30.10 in 10.0 mi North 8.1 mph - N/A   Overcast
2:54 AM 39.0 °F 34.8 °F 33.1 °F 79% 30.09 in 10.0 mi North 5.8 mph - N/A   Overcast
3:54 AM 39.0 °F 34.8 °F 33.1 °F 79% 30.08 in 10.0 mi North 5.8 mph - N/A   Overcast
4:54 AM 39.0 °F 35.7 °F 32.0 °F 76% 30.09 in 10.0 mi North 4.6 mph - N/A   Overcast
5:54 AM 37.0 °F 33.3 °F 33.1 °F 86% 30.09 in 10.0 mi NNW 4.6 mph - N/A   Overcast
6:54 AM 39.9 °F 36.7 °F 34.0 °F 79% 30.09 in 10.0 mi NW 4.6 mph - N/A   Overcast
7:54 AM 42.1 °F 37.7 °F 34.0 °F 73% 30.11 in 10.0 mi NNW 6.9 mph - N/A   Overcast
8:54 AM 44.1 °F 41.5 °F 30.9 °F 60% 30.12 in 10.0 mi NW 4.6 mph - N/A   Overcast
9:54 AM 46.0 °F 41.4 °F 30.0 °F 54% 30.11 in 10.0 mi NW 9.2 mph - N/A   Overcast
10:54 AM 46.0 °F 43.1 °F 27.0 °F 47% 30.10 in 10.0 mi NW 5.8 mph - N/A   Overcast
11:54 AM 46.0 °F 41.0 °F 28.0 °F 50% 30.10 in 10.0 mi NW 10.4 mph - N/A   Overcast
12:54 PM 46.9 °F - 28.0 °F 48% 30.09 in 10.0 mi West 5.8 mph - N/A   Mostly Cloudy
1:54 PM 48.9 °F - 27.0 °F 43% 30.09 in 10.0 mi West 8.1 mph - N/A   Mostly Cloudy
2:54 PM 48.9 °F - 27.0 °F 43% 30.09 in 10.0 mi WNW 11.5 mph - 0.00 in   Mostly Cloudy
3:54 PM 51.1 °F - 28.0 °F 41% 30.08 in 10.0 mi NW 11.5 mph - N/A   Mostly Cloudy
4:54 PM 50.0 °F - 26.1 °F 39% 30.08 in 10.0 mi NW 9.2 mph - N/A   Mostly Cloudy
5:54 PM 51.1 °F - 27.0 °F 39% 30.09 in 10.0 mi NW 8.1 mph - N/A   Mostly Cloudy
6:54 PM 50.0 °F - 25.0 °F 38% 30.08 in 10.0 mi WNW 5.8 mph - N/A   Overcast
7:54 PM 48.0 °F - 28.0 °F 46% 30.09 in 10.0 mi West 5.8 mph - N/A   Partly Cloudy
8:54 PM 44.1 °F 42.5 °F 30.9 °F 60% 30.10 in 10.0 mi WSW 3.5 mph - N/A   Scattered Clouds
9:54 PM 41.0 °F 37.1 °F 30.0 °F 65% 30.11 in 10.0 mi WSW 5.8 mph - N/A   Clear
10:54 PM 39.9 °F 34.5 °F 30.0 °F 68% 30.11 in 10.0 mi WSW 8.1 mph - N/A   Mostly Cloudy
11:54 PM 39.0 °F 33.4 °F 28.0 °F 65% 30.10 in 10.0 mi WSW 8.1 mph - N/A   Partly Cloudy